Weather in Kolesnikovo

Russia / Ryazan Oblast     54°59′31″N   40°49′41″E
temp.,
°C
wind,
m/s
gust,
m/s
humid.,
%
clouds,
%
prec.,
mm/h
press.,
hPa
HPBL,
m
19 september, sun
sun1900:00+3e277899 0.0 1025166
03:00+4e2979100 0.0 1025276
06:00+4e3976100 0.0 1024324
09:00+6e4961100 0.0 1024535
12:00+10e5846100 0.0 10231087
15:00+12ese5741100 0.0 10221373
18:00+10ese4845100 0.0 10211245
21:00+9ese51050100 0.0 10211045
20 september, mon
mon2000:00+8ese61365100 0.3 1020888
03:00+5e61491100 4.1 1019719
06:00+5e71594100 5.7 1018672
09:00+5e71694100 11.1 1018885
12:00+6e71693100 2.6 1018991
15:00+6ese71493100 3.2 10181049
18:00+6ese71493100 0.3 1018998
21:00+6ese71493100 1.7 1018987
21 september, tue
tue2100:00+6ese61395100 5.1 1017889
03:00+6ese61395100 8.6 1016817
06:00+6ese51296100 1.3 1016695
09:00+7ese51395100 1.5 1015637
12:00+8ese51195100 0.8 1015650
15:00+8ese41195100 1.9 1015634
18:00+8e41095100 0.2 1015534
21:00+8e41096100 0.3 1015489
22 september, wed
wed2200:00+7e41096100 2.3 1014522
03:00+7e3897100 6.0 1014461
06:00+6e2698100 2.4 1014424
09:00+7e2498100 3.5 1015227
12:00+8ene229598 0.4 1016240
15:00+11ene1284100 0.5 1016617
18:00+9nne2393100 0.2 101793
21:00+9ne259792 0.2 1018167
23 september, thu
thu2300:00+7ene249873 0.0 1018112
03:00+7ene2597100 0.0 1017182
06:00+7e2597100 0.0 1017199
09:00+8e259487 0.0 1017227
12:00+14e237090 0.0 1016549
15:00+15ese3570100 0.4 1015673
18:00+12ese2886100 0.3 1014175
21:00+11sw2587100 0.3 1014124